STARLINK-1230, 45189

Orbit data source: Space-Track

STARLINK-1230, 45189 is a payload satellite owned by SpaceX/Seattle (US) in LEO that was launched on Mon, 17 Feb 2020 UTC via an FALCON 9 launch vehicle from the Air Force Eastern Test Range (AFETR). Payload-class satellites include a variety of spacecraft equipped with specific instruments for various scientific and technological missions. These include communications satellites like Starlink; space stations such as the ISS; scientific satellites like the Hubble; Earth observation satellites from companies like Planet Labs, Umbra, and HawkEye 360; GPS; miniature CubeSats for education and research; and military/defense satellites.

Loading next visibility...
Identifier
45189, 2020-012M
Orbit
LEO
Country
Flag of USUS
Related business
Manufacturer
SpaceX/Seattle
Mission
Partially operational Commercial Communications
Bus & Motor
STARLINK, Unknown motor
Mass
260 kg wet, ~248 kg dry
Launch date (UTC)
2020-02-17 (7 years ago)
Launch vehicle
FALCON 9
Launch site
Air Force Eastern Test Range (AFETR)
Object type
Payload
Rocket body
Debris
Shape & HBR
Box + 1 Pan, 10.1 m
Radar Cross Section
13.562 m², Large (>1 m²)

Expand to show TLE details & history
Last TLE update: 1 day ago

TLE from 1 day ago
0 STARLINK-1230
1 45189U 20012M   26253.29444471  .00033876  00000-0  77180-3 0  9998
2 45189  53.1508 255.4108 0002498  50.6336 309.4891 15.42646245360521
Epoch: 2026-09-10T07:04Z
TLE epoch observation values (Epoch: 2026-09-10T07:04:00.022Z)
Latitude
-0.00005°
Longitude
160.07646°
Altitude
438.124 km
Speed
7.651 km/s
True Right ascension
17h 01m 38s
True Declination
0° 00' 00"
Sunlit
Object was in daylight at epoch
Visualization orbit readout
Latitude
Unknown
Longitude
Unknown
Altitude
Unknown
Speed
Unknown
Apparent Right ascension
Unknown
Apparent Declination
Unknown
Sunlit
N/A
Visualization observer readout
Local Sidereal Time
00:10:36
Azimuth
Unknown
Elevation
Unknown
Doppler factor
Unknown
Orbital elements
Apogee altitude
440.265 km
Perigee altitude
436.859 km
Semi-major axis
6,816.699 km
Eccentricity
0.00025
Inclination
53.1508°
RAAN
255.4108°
Arg. of periapsis
50.6336°
True anomaly
309.467°
Mean anomaly
309.4891°
Eccentric anomaly
309.47805°
Mean motion
3.8564 °/min
Orbital period
93.35 mins
BSTAR
0.0007718
Loading maneuver chart data...
Computing Atmospheric mass density...

Documentation

Showing up to 5 results
|